Location: Austin
(30.3000°N, 97.7500°W)
Time: 02:32:36
(UTC-05:00)

ATLAS 2AS CENTAUR R/B - Pass Details

Date: 15 May 2024
Orbit: 1016 x 1195 km, 63.7° (Epoch: 29 May)

Event Time Altitude Azimuth Distance (km) Brightness Sun altitude
Rises 21:38:57 0° 212° (SSW) 4,076 5.7 -16.1°
Reaches altitude 10° 21:41:42 10° 214° (SSW) 3,108 5.1 -16.6°
Maximum altitude 21:49:10 75° 299° (WNW) 1,205 3.1 -17.9°
Drops below altitude 10° 21:56:27 10° 25° (NNE) 3,026 5.2 -19.1°
Sets 21:59:07 0° 27° (NNE) 3,964 5.8 -19.6°
